Regional Weather Roundup
Issued by NWS Sterling, VA

Home | Current Version | Previous Version | Graphics & Text | Print | Product List | Glossary On
Versions: 1 2 3 4 5 6 7 8 9 10 11 12 13 14 15 16 17 18 19 20 21 22 23 24 25 26 27
000
ASUS41 KLWX 190610
RWRLWX

REGIONAL WEATHER ROUNDUP
NATIONAL WEATHER SERVICE BALTIMORE MD/WASHINGTON DC
100 AM EST THU JAN 19 2017

Note: "FAIR" indicates few or no clouds below 12,000 feet
with no significant weather and/or obstructions to visibility.
 TC=TEMPERATURE CELSIUS

 * =Non NWS site. Station does not report precipitation (e.g. rain,
    snow, etc.), thunder, or fog.

DCZ001-MDZ009-015-VAZ040>042-051-053>054-190700-
WASHINGTON METRO

CITY           SKY/WX    TMP DP  RH WIND       PRES   REMARKS
WASHINGTON NAT CLOUDY    47  36  65 NW7       30.08F
DULLES         MOCLDY    39  33  79 NW5       30.07F
ANDREWS AFB    CLOUDY    46  35  65 NW12      30.05F
FT BELVOIR     PTCLDY    40  34  80 CALM      30.07F
QUANTICO       PTCLDY    43  36  76 N8        30.09F
COLLEGE PARK*  CLOUDY    45  34  65 NW6       30.07S
LEESBURG*      CLOUDY    45  39  81 NW7       30.08S
GAITHERSBURG*  CLOUDY    39  32  75 CALM      30.10F

$$

MDZ006>007-011-014-190700-
BALTIMORE METRO

CITY           SKY/WX    TMP DP  RH WIND       PRES   REMARKS
BWI AIRPORT    CLOUDY    46  36  68 W12       30.06F
MD SCIENCE CTR   N/A     48  34  58 MISG      30.06F
FORT MEADE*    CLOUDY    45  36  70 W5        30.09F

$$

MDZ012-015-019>023-190700-
MARYLAND EASTERN SHORE

CITY           SKY/WX    TMP DP  RH WIND       PRES   REMARKS
OCEAN CITY     NOT AVBL
SALISBURY      CLOUDY    43  40  89 N3        30.05R
BAY BRIDGE AP* CLOUDY    45  37  76 NW9       30.06F
CAMBRIDGE*     CLOUDY    45  36  70 NW5       30.04F
EASTON*        CLOUDY    47  37  66 N7        30.08S

$$

MDZ017>025-190700-
SOUTHERN MARYLAND

CITY           SKY/WX    TMP DP  RH WIND       PRES   REMARKS
PATUXENT RIVER CLOUDY    46  37  71 NW7       30.05F
ST INIGOES     PTCLDY    46  36  68 CALM      30.04F
LEONARDTOWN*   CLOUDY    45  34  65 NW5       30.07F

$$

MDZ003>005-190700-
NORTH CENTRAL MARYLAND

CITY           SKY/WX    TMP DP  RH WIND       PRES   REMARKS
FREDERICK*     CLOUDY    43  37  81 CALM      30.09F
HAGERSTOWN APT CLOUDY    43  34  70 W7        30.05F
WESTMINSTER*   CLOUDY    41  36  81 NW6       30.05F

$$

MDZ501>502-190700-
WESTERN MARYLAND

CITY           SKY/WX    TMP DP  RH WIND       PRES   REMARKS
OAKLAND*       FOG       32  32 100 W7G16     30.03S VSB 1/4
CUMBERLAND*    CLOUDY    43  34  70 W5        30.12S

$$

VAZ025>031-190700-
SHENANDOAH VALLEY

CITY           SKY/WX    TMP DP  RH WIND       PRES   REMARKS
WINCHESTER*    CLOUDY    41  34  75 CALM      30.08S
FRONT ROYAL*   CLOUDY    43  36  75 CALM      30.07S
LURAY*         CLOUDY    34  34 100 CALM      30.06F
NEW MARKET*    CLOUDY    31  30  94 CALM      30.07S
STAUNTON*      CLOUDY    29  28  96 CALM      30.08F
WAYNESBORO*    CLOUDY    40  34  79 W5        30.07S

$$

WVZ021-048>050-054>055-190700-
EASTERN WEST VIRGINIA PANHANDLE

CITY           SKY/WX    TMP DP  RH WIND       PRES   REMARKS
MARTINSBURG    CLOUDY    44  34  67 NW5       30.08S
PETERSBURG*    CLOUDY    33  32  97 CALM      30.09S

$$

VAZ036>039-050-190700-
CENTRAL FOOTHILLS

CITY           SKY/WX    TMP DP  RH WIND       PRES   REMARKS
CHARLOTTESVILL CLOUDY    42  34  73 CALM      30.06F
CULPEPER*      PTCLDY    34  32  94 CALM      30.08F
ORANGE*          N/A     34  34 100 CALM      30.09S
GORDONSVILLE*  CLEAR     32  32  99 CALM      30.06F
WARRENTON*     PTCLDY    40  32  73 N3        30.06F

$$

VAZ055>057-190700-
NORTH AND CENTRAL PIEDMONT

CITY           SKY/WX    TMP DP  RH WIND       PRES   REMARKS
FREDERICKSBRG* PTCLDY    42  37  80 NW3       30.07F
STAFFORD*      CLEAR     37  35  92 CALM      30.12F

$$

NCZ024-NYZ072-PAZ021-071-VAZ022-071-190700-
OTHER REGIONAL OBSERVATIONS

CITY           SKY/WX    TMP DP  RH WIND       PRES   REMARKS
NEW YORK CITY  MOCLDY    39  35  86 CALM      30.04R
PHILADELPHIA   CLOUDY    45  38  76 NW5       30.05R
PITTSBURGH     CLOUDY    38  36  92 W9        30.08F
ROANOKE        CLOUDY    42  36  79 NW7       30.11F
RICHMOND       CLOUDY    42  35  76 N7        30.07S
RALEIGH        PTCLDY    46  35  65 CALM      30.07S

$$

ANZ530>537-190700-
MARINE OBSERVATIONS

STATION/POSITION TIME  TEMP    WIND        PRES
                       AIR SEA DIR/SP/G
                 (UTC) (F)     (DEG/KT/KT) (MB)
THOMAS PT LIGHT  0600   47 39  310/ 10/ 10   N/A
BALT KEY BRIDGE  0548          290/ 10/ 11 1018.0F
COVE POINT       0548          350/ 10/ 11 1018.1F
LEWISETTA        0548          320/  5/  6 1017.4F
SOLOMONS ISLAND  0548          340/  6/  9   N/A
PINEY POINT      0548          310/ 10/ 11   N/A

$$





USA.gov is the U.S. government's official web portal to all federal, state and local government web resources and services.